Content
SEND FEEDBACK

Daily
Averages
Monthly
Summary
Canada

VANCOUVER, BRITISH COLUMBIA


Home > North America > Canada > British Columbia
Elevation: 7 feet     Latitude: 49 11N     Longitude: 123 10W

WEATHER
 
SELECT A DAY
Number of Records: 252,960;   Date Range: 5/15/97 - 10/20/14
 
SHARE

PRINT THIS DATA

[ ← Previous Day ]
WEATHER ALMANAC - JANUARY 7, 2013
[ Next Day → ]
[ °C ]   °F
Weather ElementAverageHighLow
Temperature43.9 °F50 °F (12:55 pm)37.4 °F (10:15 pm)
Dewpoint41.4 °F46.4 °F (11:15 am)37.4 °F (10:15 pm)
Humidity91.3 %100 % (9:55 am)71 % (4:35 pm)
Barometer29.89 in30.11 in (11:55 pm)29.76 in (7:35 am)
Wind Speed9 mph17.3 mph (12:15 pm)
Wind Gust25.3 mph (5:35 am)
Weather ElementAverage
Visibility8.2 mi
Wind DirectionSSE (152.9 °)

Weather ElementTotal
Precipitation0.10 in
Heating Degree Days21.3 (Base 65)
Averaged from 65 records on January 7, 2013
WEATHER CONDITIONS BREAKOUT
WIND DIRECTION BREAKOUT
WEATHER BY HOUR - JANUARY 7, 2013
[ °C ]   °F
Local TimeTemperatureDewpointHumidityBarometerVisibilityWind DirectionWind SpeedGust SpeedPrecipitationEventsConditions
12:35 AM41.0 °F39.2 °F93 %29.90 in5.0 miSouth (180°)12.7 mph24.2 mphOvercast
12:55 AM41.0 °F39.2 °F93 %29.89 in5.0 miSouth (180°)8.1 mph20.7 mphRainLight Rain
1:15 AM41.0 °F39.2 °F93 %29.88 in4.0 miSouth (190°)13.8 mph20.7 mphOvercast
1:35 AM41.0 °F39.2 °F93 %29.88 in4.0 miSouth (180°)12.7 mph20.7 mphOvercast
1:55 AM41.0 °F39.2 °F93 %29.88 in4.0 miSouth (180°)10.4 mph20.7 mph0.02 inRainLight Rain
2:15 AM41.0 °F39.2 °F93 %29.87 in5.0 miSouth (180°)9.2 mph17.3 mph0.02 inRainRain
2:35 AM41.0 °F39.2 °F93 %29.87 in4.0 miSouth (180°)10.4 mph18.4 mph0.02 inRainLight Rain
2:55 AM41.0 °F39.2 °F93 %29.86 in5.0 miSouth (180°)8.1 mph16.1 mph0.03 inRainRain
3:15 AM41.0 °F39.2 °F93 %29.85 in5.0 miSouth (190°)11.5 mphRainLight Rain
3:35 AM41.0 °F39.2 °F93 %29.84 in5.0 miSouth (180°)12.7 mph18.4 mphRainLight Rain
3:55 AM41.0 °F39.2 °F93 %29.83 in5.0 miSouth (180°)12.7 mph24.2 mphRainLight Rain
4:15 AM41.0 °F39.2 °F93 %29.82 in6.0 miSouth (180°)11.5 mph19.6 mphRainLight Rain
4:35 AM41.0 °F39.2 °F93 %29.80 in5.0 miSouth (190°)13.8 mph24.2 mphRainLight Rain
4:55 AM41.0 °F39.2 °F93 %29.80 in7.0 miSouth (180°)12.7 mph20.7 mph0.01 inRainLight Rain
5:15 AM41.0 °F39.2 °F93 %29.77 in8.0 miSouth (180°)12.7 mph20.7 mphRainLight Rain
5:35 AM42.8 °F39.2 °F87 %29.77 in5.0 miSouth (180°)11.5 mph25.3 mphRainLight Rain
5:55 AM42.8 °F41.0 °F93 %29.78 in8.0 miSSW (200°)16.1 mph21.9 mphRainLight Rain
6:15 AM42.8 °F41.0 °F93 %29.78 in10.0 miSouth (170°)8.1 mph17.3 mphOvercast
6:35 AM42.8 °F41.0 °F93 %29.78 in5.0 miSouth (180°)8.1 mphOvercast
6:55 AM42.8 °F41.0 °F93 %29.77 in10.0 miSouth (180°)10.4 mph20.7 mphOvercast
7:35 AM44.6 °F41.0 °F87 %29.76 in6.0 miSSW (200°)13.8 mph23.0 mphMostly Cloudy
8:15 AM44.6 °F41.0 °F87 %29.76 in6.0 miSouth (190°)15.0 mph19.6 mphRainLight Rain
8:35 AM44.6 °F42.8 °F93 %29.77 in7.0 miSSW (200°)13.8 mph21.9 mphRainLight Rain
8:55 AM44.6 °F42.8 °F93 %29.77 in7.0 miSouth (190°)12.7 mph16.1 mphOvercast
9:15 AM44.6 °F42.8 °F93 %29.77 in10.0 miSouth (190°)11.5 mphOvercast
9:55 AM44.6 °F44.6 °F100 %29.78 in10.0 miSouth (180°)10.4 mph17.3 mphOvercast
10:15 AM46.4 °F44.6 °F93 %29.79 in10.0 miSouth (180°)10.4 mph18.4 mphOvercast
10:35 AM46.4 °F44.6 °F93 %29.78 in10.0 miSouth (180°)9.2 mph17.3 mphOvercast
10:55 AM46.4 °F44.6 °F93 %29.78 in10.0 miSouth (170°)10.4 mph18.4 mphMostly Cloudy
11:15 AM48.2 °F46.4 °F93 %29.78 in10.0 miSouth (180°)12.7 mph18.4 mphOvercast
11:35 AM48.2 °F46.4 °F93 %29.80 in10.0 miSSW (200°)10.4 mphMostly Cloudy
11:55 AM48.2 °F46.4 °F93 %29.80 in10.0 miSSW (200°)11.5 mph19.6 mphPartly Cloudy
12:15 PM48.2 °F46.4 °F93 %29.80 in10.0 miSSW (200°)17.3 mph21.9 mphClear
12:35 PM48.2 °F46.4 °F93 %29.81 in10.0 miSouth (190°)11.5 mph21.9 mphClear
12:55 PM50.0 °F46.4 °F87 %29.83 in10.0 miSouth (190°)10.4 mph17.3 mphClear
1:15 PM50.0 °F44.6 °F82 %29.83 in10.0 miSSW (200°)16.1 mph25.3 mphClear
1:35 PM50.0 °F44.6 °F82 %29.84 in10.0 miSSW (210°)13.8 mph23.0 mphClear
1:55 PM50.0 °F44.6 °F82 %29.84 in10.0 miSSW (210°)13.8 mph25.3 mphClear
2:15 PM50.0 °F44.6 °F82 %29.85 in10.0 miSSW (200°)13.8 mph24.2 mphClear
2:35 PM50.0 °F44.6 °F82 %29.86 in10.0 miSSW (210°)9.2 mph20.7 mphClear
2:55 PM50.0 °F44.6 °F82 %29.88 in10.0 miSSW (200°)10.4 mph21.9 mphClear
3:15 PM50.0 °F42.8 °F76 %29.89 in10.0 miSSW (210°)8.1 mph19.6 mphClear
3:35 PM50.0 °F42.8 °F76 %29.91 in10.0 miSSW (200°)9.2 mphClear
3:55 PM48.2 °F42.8 °F82 %29.92 in10.0 miSouth (190°)10.4 mphClear
4:15 PM48.2 °F41.0 °F76 %29.93 in10.0 miSSW (210°)10.4 mph17.3 mphClear
4:35 PM48.2 °F39.2 °F71 %29.95 in10.0 miSW (220°)8.1 mphClear
4:55 PM44.6 °F41.0 °F87 %29.96 in10.0 miNNW (330°)5.8 mphMostly Cloudy
5:15 PM44.6 °F41.0 °F87 %29.97 in10.0 miNW (310°)5.8 mphPartly Cloudy
5:35 PM44.6 °F41.0 °F87 %29.99 in10.0 miNorthScattered Clouds
5:55 PM44.6 °F41.0 °F87 %30.00 in10.0 miCalmMostly Cloudy
6:15 PM44.6 °F41.0 °F87 %30.01 in10.0 miCalmOvercast
6:55 PM42.8 °F41.0 °F93 %30.03 in10.0 miCalmScattered Clouds
7:15 PM41.0 °F39.2 °F93 %30.03 in10.0 miCalmClear
7:35 PM39.2 °F39.2 °F100 %30.03 in7.0 miSouth (190°)3.5 mphClear
7:55 PM39.2 °F39.2 °F100 %30.04 in8.0 miCalmClear
8:35 PM39.2 °F39.2 °F100 %30.05 in8.0 miCalmClear
8:55 PM39.2 °F39.2 °F100 %30.07 in10.0 miNorthClear
9:15 PM39.2 °F39.2 °F100 %30.08 in9.0 miCalmPartly Cloudy
9:35 PM39.2 °F39.2 °F100 %30.08 in9.0 miCalmClear
9:55 PM39.2 °F39.2 °F100 %30.09 in5.0 miCalmClear
10:15 PM37.4 °F37.4 °F100 %30.09 in5.0 miNorthClear
10:35 PM39.2 °F39.2 °F100 %30.10 in9.0 miCalmClear
11:15 PM39.2 °F39.2 °F100 %30.10 in10.0 miSouth (180°)4.6 mphPartly Cloudy
11:35 PM41.0 °F41.0 °F100 %30.10 in10.0 miCalmClear
11:55 PM41.0 °F41.0 °F100 %30.11 in10.0 miSouth (190°)6.9 mphClear
Hourly data recorded from CZBB, located miles away from Vancouver, British Columbia







STORIES FROM OUR PARTNERS